Change the Weather History Date:

Sunday, May 4, 2014

  Actual Average Record
Temperature  
Mean Temperature 68 °F 62 °F  
Max Temperature 81 °F 72 °F 93 °F (1928)
Min Temperature 55 °F 53 °F 39 °F (1986)
Degree Days  
Heating Degree Days 0 4  
Month to date heating degree days 1 18  
Since 1 July heating degree days 4090 3964  
Cooling Degree Days 3 2  
Month to date cooling degree days 6 6  
Year to date cooling degree days 27 32  
Growing Degree Days 18 (Base 50)    
Moisture  
Dew Point 41 °F    
Average Humidity 50    
Maximum Humidity 77    
Minimum Humidity 23    
Precipitation  
Precipitation 0.00 in 0.12 in 1.77 in (1922)
Month to date precipitation 0.16 0.47  
Year to date precipitation 17.49 12.44  
Snow  
Snow 0.00 in 0.00 in - ()
Month to date snowfall 0.0 0.0  
Since 1 July snowfall 32.0 15.4  
Snow Depth 0.00 in    
Sea Level Pressure  
Sea Level Pressure 29.82 in    
Wind  
Wind Speed 12 mph (WNW)    
Max Wind Speed 26 mph    
Max Gust Speed 37 mph    
Visibility 10 miles    
Events      
T = Trace of Precipitation, MM = Missing Value Source: NWS Daily Summary

Daily Weather History Graph

Daily Weather History Graph

Search for Another Location

Airport or City:

Trip Planner

Search our weather history database for the weather conditions in past years. The results will help you decide how hot, cold, wet, or windy it might be!

Date:

Astronomy

May. 04, 2014 Rise Set
Actual Time 6:06 AM EDT 8:03 PM EDT
Civil Twilight 5:37 AM EDT 8:32 PM EDT
Nautical Twilight 5:02 AM EDT 9:07 PM EDT
Astronomical Twilight 4:24 AM EDT 9:46 PM EDT
Moon 10:29 AM EDT (5/4) 12:06 AM EDT (5/4)
Length of Visible Light 14h 54m
Length of Day
13h 56m
Waxing Crescent, 27% of the Moon is Illuminated
May 4
Waxing Crescent
May 6
First Quarter
May 14
Full
May 21
Last Quarter
May 28
New

Hourly Weather History & Observations

Time (EDT) Temp. Dew Point Humidity Pressure Visibility Wind Dir Wind Speed Gust Speed Precip Events Conditions
12:52 AM 62.1 °F 43.0 °F 50% 29.86 in 10.0 mi North 4.6 mph - N/A   Partly Cloudy
1:52 AM 57.0 °F 45.0 °F 64% 29.86 in 10.0 mi SSW 6.9 mph - N/A   Partly Cloudy
2:52 AM 57.0 °F 50.0 °F 77% 29.87 in 10.0 mi South 5.8 mph - N/A   Clear
3:52 AM 57.9 °F 41.0 °F 53% 29.86 in 10.0 mi SW 6.9 mph - N/A   Scattered Clouds
4:52 AM 57.0 °F 41.0 °F 55% 29.86 in 10.0 mi SW 5.8 mph - N/A   Partly Cloudy
5:52 AM 55.0 °F 39.9 °F 57% 29.86 in 10.0 mi SSW 4.6 mph - N/A   Partly Cloudy
6:52 AM 55.0 °F 42.1 °F 62% 29.87 in 10.0 mi SSW 4.6 mph - N/A   Partly Cloudy
7:52 AM 60.1 °F 41.0 °F 49% 29.87 in 10.0 mi SSW 6.9 mph - N/A   Partly Cloudy
8:52 AM 64.9 °F 41.0 °F 42% 29.86 in 10.0 mi SSW 11.5 mph - N/A   Clear
9:52 AM 71.1 °F 39.0 °F 31% 29.83 in 10.0 mi West 12.7 mph 19.6 mph N/A   Clear
10:52 AM 73.0 °F 36.0 °F 26% 29.81 in 10.0 mi WSW 13.8 mph 25.3 mph N/A   Scattered Clouds
11:52 AM 72.0 °F 37.0 °F 28% 29.79 in 10.0 mi WSW 13.8 mph 25.3 mph N/A   Mostly Cloudy
12:52 PM 73.9 °F 39.0 °F 28% 29.76 in 10.0 mi WSW 15.0 mph 26.5 mph N/A   Mostly Cloudy
1:52 PM 77.0 °F 39.9 °F 26% 29.72 in 10.0 mi WSW 18.4 mph 24.2 mph N/A   Mostly Cloudy
2:52 PM 81.0 °F 39.9 °F 23% 29.70 in 10.0 mi NW 25.3 mph 36.8 mph N/A   Mostly Cloudy
3:52 PM 73.9 °F 45.0 °F 35% 29.72 in 10.0 mi North 16.1 mph - N/A   Mostly Cloudy
3:54 PM 73.4 °F 46.4 °F 38% 29.72 in 10.0 mi North 15.0 mph - N/A   Mostly Cloudy
4:52 PM 73.9 °F 46.0 °F 37% 29.73 in 10.0 mi North 13.8 mph - N/A   Scattered Clouds
5:52 PM 72.0 °F 44.1 °F 37% 29.75 in 10.0 mi North 11.5 mph - N/A   Mostly Cloudy
6:52 PM 69.1 °F 43.0 °F 39% 29.77 in 10.0 mi North 17.3 mph - N/A   Mostly Cloudy
7:52 PM 64.4 °F 41.0 °F 42% 29.82 in 10.0 mi North 20.7 mph - N/A   Mostly Cloudy
8:52 PM 63.0 °F 39.9 °F 43% 29.86 in 10.0 mi North 12.7 mph - N/A   Scattered Clouds
9:52 PM 59.0 °F 41.0 °F 51% 29.88 in 10.0 mi North 8.1 mph - N/A   Scattered Clouds
10:52 PM 60.1 °F 39.0 °F 46% 29.91 in 10.0 mi North 13.8 mph - N/A   Scattered Clouds
11:52 PM 57.9 °F 37.0 °F 46% 29.95 in 10.0 mi North 15.0 mph - N/A   Scattered Clouds